Flag for Canada Weather past 2 weeks in Oakville, Ontario, Canada

Now
33 °F

Chilly.


Feels Like: 27 °F
Forecast: 30 / 37 °F
Wind: 6 mph from Northeast

Location: Burlington Piers

Current Time: Dec 22, 2014 at 12:54:15 PM

Latest Report: Dec 22, 2014 at 12:00 PM


Visibility: N/A

Pressure: 30.15 "Hg

Humidity: 73%

Dew point: 25 °F

Location of OakvilleLocation

Historic Weather in Oakville — Graph

°F

Oakville temperature yesterday

Maximum temperature yesterday: 34 °F (at 2:00 PM)
Minimum temperature yesterday: 29 °F (at 7:00 AM)
Average temperature yesterday: 32 °F

Past Weeks' High & Low Weather Summary

 TemperatureHumidityPressure
High45 °F (Dec 17, 3:00 AM)100% (Dec 11, 11:00 AM)30.79 "Hg (Dec 11, 11:00 AM)
Low25 °F (Dec 20, 6:00 AM)36% (Dec 12, 1:00 PM)29.71 "Hg (Dec 16, 3:00 PM)
Average34 °F78%30.11 "Hg
* Reported Dec 7 11:00 AM — Dec 22 11:00 AM, Oakville, Weather by CustomWeather, © 2014

Note: Actual official high and low records may vary slightly from our data, if they occured in-between our weather recording intervals... More about our weather records

Advertising

Oakville weather history for previous 24 hours

 ConditionsComfort  
Time TempWeatherWind HumidityBarometerVisibility
11:00 AM
Dec 22
31 °FChilly.8 mph78%30.19 "HgN/A
10:00 AM31 °FChilly.13 mph78%30.20 "HgN/A
9:00 AM31 °FChilly.13 mph78%30.20 "HgN/A
3:00 AM33 °FChilly.12 mph70%30.24 "HgN/A
2:00 AM33 °FChilly.10 mph66%30.26 "HgN/A
1:00 AM33 °FChilly.9 mph65%30.27 "HgN/A
12:00 AM33 °FChilly.7 mph65%30.29 "HgN/A
11:00 PM
Dec 21
33 °FChilly.8 mph68%30.29 "HgN/A
10:00 PM33 °FChilly.10 mph67%30.29 "HgN/A
9:00 PM33 °FChilly.7 mph64%30.31 "HgN/A
8:00 PM33 °FChilly.5 mph62%30.31 "HgN/A
7:00 PM33 °FChilly.3 mph60%30.32 "HgN/A
6:00 PM33 °FChilly.2 mph62%30.31 "HgN/A
5:00 PM33 °FChilly.5 mph62%30.31 "HgN/A
4:00 PM34 °FChilly.3 mph60%30.30 "HgN/A
3:00 PM34 °FChilly.5 mph63%30.30 "HgN/A
2:00 PM34 °FChilly.6 mph61%30.29 "HgN/A
1:00 PM34 °FChilly.6 mph65%30.31 "HgN/A
12:00 PM33 °FChilly.5 mph73%30.32 "HgN/A
Weather by CustomWeather, © 2014

See weather overviewHow to use our weather pages